Probability
0 3 0 0 0 0 0 0 0 0 0 0 0 0 0 0 0 0 0 0 0 0 0 0 0 0 0 3 13 13 16 16 13 10 10 6 3 3
0 0 0 0 0 0 0 0 0 0 0 0 0 0 0 0 0 0 0 0 0 0 0 0 0 0 0 0 0 0 0 0 0 0 0 3 3 3
0 0 0 3 0 0 0 0 0 0 0 0 0 0 0 0 0 0 0 0 0 0 0 0 0 0 0 0 0 0 0 0 0 0 0 0 0 0
0 0 0 0 0 0 0 0 0 0 0 0 0 0 0 0 0 0 0 0 0 0 0 0 0 0 0 0 0 0 0 0 0 0 0 0 0 0
0 0 0 0 0 0 0 0 0 0 0 0 0 0 0 0 0 0 0 0 0 0 0 0 0 0 0 0 0 0 0 0 0 0 0 0 0 0
0 0 0 0 0 0 0 0 0 0 0 0 0 0 0 0 0 0 0 0 0 0 0 0 0 0 0 0 0 0 0 0 0 0 0 0 0 0
0 0 0 0 0 0 0 0 0 0 0 0 0 0 0 0 0 0 0 0 0 0 0 0 0 0 0 0 0 0 0 0 0 0 0 0 0 0
0 0 0 0 0 0 0 0 0 0 0 0 0 0 0 0 0 0 0 0 0 0 0 0 0 0 0 0 0 0 0 0 0 0 0 0 0 0
0 0 0 0 0 0 0 0 0 0 0 0 0 0 0 0 0 0 0 0 0 0 0 0 0 0 0 0 0 0 0 0 0 0 0 0 0 0
0 0 0 0 0 0 0 0 0 0 0 0 0 0 0 0 0 0 0 0 0 0 0 0 0 0 0 0 0 0 0 0 0 0 0 0 0 0
0 0 0 0 0 0 0 0 0 0 0 0 0 0 0 0 0 0 0 0 0 0 0 0 0 0 0 0 0 0 0 0 0 0 0 0 0 0
0 0 0 0 0 0 0 0 0 0 0 0 0 0 0 0 0 0 0 0 0 0 0 0 0 0 0 0 0 0 0 0 0 0 0 0 0 0
0 0 0 0 0 0 0 0 0 0 0 0 0 0 0 0 0 0 0 0 0 0 0 0 0 0 0 0 0 0 0 0 0 0 0 0 0 0
0 0 0 0 0 0 0 0 0 0 0 0 0 0 0 0 0 0 0 0 0 0 0 0 0 0 0 0 0 0 0 0 0 0 0 0 0 0
0 0 0 0 0 0 0 0 0 0 0 0 0 0 0 0 0 0 0 0 0 0 0 0 0 0 0 0 0 0 0 0 0 0 0 0 0 0
0 0 0 0 0 0 0 0 0 0 0 0 0 0 0 0 0 0 0 0 0 0 0 0 0 0 0 0 0 0 0 0 0 0 0 0 0 0
0 0 0 0 0 0 0 0 0 0 0 0 0 0 0 0 0 0 0 0 0 0 0 0 0 0 0 0 0 0 0 0 0 0 0 0 0 0
0 0 0 0 0 0 0 0 0 0 0 0 0 0 0 0 0 0 0 0 0 0 0 0 0 0 0 0 0 0 0 0 0 0 0 0 0 0
0 0 0 0 0 0 0 0 0 0 0 0 0 0 0 0 0 0 0 0 0 0 0 0 0 0 0 0 0 0 0 0 0 0 0 0 0 0
0 0 0 0 0 0 0 0 0 0 0 0 0 0 0 0 0 0 0 0 0 0 0 0 0 0 0 0 0 0 0 0 0 0 0 0 0 0
0 0 0 0 0 0 0 0 0 0 0 0 0 0 0 0 0 0 0 0 0 0 0 0 0 0 0 0 0 0 0 0 0 0 0 0 0 0
0 0 0 0 0 0 0 0 0 0 0 0 0 0 0 0 0 0 0 0 0 0 0 0 0 0 0 0 0 0 0 0 0 0 0 0 0 0
0 0 0 0 0 0 0 0 0 0 0 0 0 0 0 0 0 0 0 0 0 0 0 0 0 0 0 0 0 0 0 0 0 0 0 0 0 0
Height
5762 5765 5769 5773 5778 5782 5787 5792 5797 5801 5805 5810 5814 5818 5822 5826 5830 5833 5836 5840 5843 5846 5849 5851 5854 5856 5857 5859 5860 5861 5862 5862 5863 5863 5863 5863 5862 5862
5755 5759 5762 5766 5770 5774 5779 5783 5788 5793 5797 5801 5806 5810 5815 5819 5822 5825 5829 5832 5836 5839 5842 5844 5847 5849 5851 5852 5853 5855 5855 5856 5856 5857 5857 5856 5856 5856
5749 5753 5756 5759 5763 5767 5771 5776 5780 5785 5790 5794 5798 5803 5807 5811 5814 5818 5821 5825 5828 5831 5834 5837 5839 5841 5843 5845 5846 5848 5848 5849 5850 5850 5850 5850 5849 5849
5744 5747 5750 5753 5756 5760 5764 5769 5773 5778 5782 5786 5791 5795 5799 5803 5807 5811 5814 5817 5820 5823 5826 5829 5831 5834 5836 5837 5839 5840 5841 5842 5842 5843 5843 5843 5843 5842
5739 5741 5744 5747 5750 5753 5758 5762 5766 5771 5775 5779 5783 5787 5792 5796 5799 5803 5806 5809 5812 5815 5818 5821 5823 5826 5828 5829 5831 5832 5833 5834 5835 5835 5835 5835 5835 5835
5735 5737 5739 5741 5744 5747 5751 5755 5760 5764 5768 5772 5776 5780 5784 5788 5792 5795 5798 5801 5805 5807 5810 5813 5815 5817 5819 5821 5823 5824 5825 5826 5827 5827 5828 5828 5828 5828
5731 5733 5735 5737 5739 5742 5746 5749 5753 5757 5761 5765 5769 5773 5776 5780 5784 5788 5791 5794 5796 5799 5802 5805 5807 5809 5811 5812 5814 5815 5817 5818 5819 5819 5820 5820 5821 5821
5729 5730 5731 5733 5735 5738 5741 5744 5748 5751 5755 5759 5763 5766 5769 5773 5776 5780 5783 5786 5789 5792 5794 5796 5798 5800 5802 5804 5806 5807 5808 5810 5811 5812 5812 5813 5813 5813
5727 5728 5729 5730 5732 5734 5736 5739 5742 5746 5749 5753 5756 5759 5763 5766 5769 5772 5775 5778 5781 5783 5785 5787 5790 5792 5794 5796 5797 5799 5800 5802 5803 5804 5805 5806 5806 5807
5727 5727 5727 5728 5729 5731 5732 5735 5737 5740 5744 5747 5750 5753 5756 5759 5762 5765 5768 5770 5773 5775 5778 5780 5782 5784 5786 5788 5789 5791 5792 5794 5796 5797 5798 5799 5800 5800
5727 5726 5726 5726 5727 5728 5729 5731 5733 5735 5738 5741 5744 5747 5750 5752 5755 5758 5761 5763 5765 5768 5770 5773 5775 5777 5778 5780 5782 5783 5785 5787 5788 5790 5791 5792 5793 5793
5727 5726 5725 5725 5725 5725 5726 5727 5729 5731 5733 5736 5738 5741 5744 5747 5749 5752 5754 5756 5758 5761 5763 5766 5767 5769 5771 5773 5775 5776 5778 5779 5781 5783 5784 5785 5786 5787
5727 5726 5725 5724 5724 5724 5724 5725 5726 5728 5730 5731 5734 5736 5738 5741 5743 5745 5748 5750 5752 5754 5756 5758 5760 5762 5764 5766 5768 5770 5771 5773 5774 5776 5777 5779 5780 5781
5728 5726 5725 5724 5723 5722 5723 5723 5724 5725 5727 5728 5730 5732 5733 5736 5737 5739 5741 5743 5746 5748 5750 5752 5754 5756 5758 5760 5761 5763 5765 5766 5768 5770 5772 5773 5774 5775
5728 5726 5725 5723 5722 5721 5721 5722 5722 5723 5724 5725 5726 5728 5729 5731 5732 5734 5736 5738 5740 5742 5744 5746 5748 5750 5752 5754 5755 5757 5759 5760 5762 5764 5766 5767 5768 5770
5729 5727 5725 5723 5722 5721 5720 5720 5721 5721 5722 5723 5723 5724 5725 5727 5728 5730 5731 5733 5735 5737 5739 5740 5742 5744 5746 5748 5749 5751 5753 5755 5757 5758 5760 5762 5763 5764
5729 5727 5725 5723 5722 5720 5720 5719 5719 5719 5720 5720 5721 5721 5722 5723 5724 5725 5727 5728 5730 5732 5734 5735 5737 5738 5740 5742 5744 5746 5748 5749 5751 5753 5754 5756 5757 5759
5728 5726 5724 5722 5721 5719 5719 5718 5718 5718 5718 5718 5718 5719 5719 5720 5721 5722 5723 5724 5725 5727 5729 5731 5732 5734 5736 5737 5739 5741 5742 5744 5746 5747 5749 5750 5752 5754
5726 5724 5722 5720 5719 5718 5717 5716 5716 5715 5715 5715 5715 5715 5716 5716 5717 5717 5719 5720 5721 5723 5724 5725 5727 5728 5730 5732 5733 5735 5737 5738 5740 5741 5743 5745 5746 5748
5722 5721 5719 5717 5716 5715 5714 5713 5712 5712 5711 5711 5711 5711 5712 5712 5712 5713 5714 5715 5717 5718 5719 5720 5722 5723 5725 5727 5728 5729 5731 5733 5734 5736 5737 5739 5741 5742
5717 5716 5714 5713 5712 5711 5710 5709 5708 5707 5707 5707 5707 5707 5707 5707 5708 5708 5709 5710 5711 5713 5714 5715 5716 5718 5719 5721 5722 5724 5725 5727 5728 5730 5731 5733 5734 5736
5711 5710 5708 5707 5706 5705 5704 5703 5702 5702 5702 5702 5701 5701 5701 5702 5702 5703 5704 5705 5706 5707 5708 5709 5710 5712 5713 5715 5716 5717 5719 5720 5722 5723 5725 5727 5728 5730
5703 5701 5700 5699 5698 5697 5696 5696 5695 5695 5695 5695 5695 5695 5695 5696 5696 5697 5698 5699 5700 5701 5702 5703 5704 5706 5707 5708 5710 5711 5712 5714 5715 5717 5718 5720 5722 5723
Wind_Speed
27 28 31 33 34 35 36 35 35 34 33 33 33 34 33 32 31 32 31 31 30 30 29 28 28 27 27 26 26 26 26 26 26 25 25 25 26 26
24 26 28 31 32 33 35 35 35 34 33 32 32 33 33 32 32 32 32 31 31 31 30 30 30 29 29 29 29 29 28 27 27 27 27 26 26 27
22 24 26 27 30 31 32 33 34 35 34 33 32 32 33 32 32 32 31 32 32 32 31 31 31 31 30 30 30 29 29 29 29 28 28 28 27 27
19 22 24 26 28 29 31 32 32 34 33 33 32 32 33 33 32 32 31 31 31 32 32 31 31 31 31 31 31 30 30 30 29 29 29 29 29 28
17 19 21 24 25 27 29 30 30 31 31 32 31 31 32 32 32 32 32 31 31 31 31 31 32 32 32 32 32 32 31 30 30 30 30 29 29 29
14 15 17 20 22 23 26 27 29 30 30 30 30 31 31 31 32 32 32 31 31 31 31 32 32 32 32 32 31 31 31 31 31 30 30 29 29 29
11 13 14 17 19 21 23 25 26 27 28 29 29 30 31 30 31 32 32 31 31 31 32 32 32 32 32 32 31 31 31 31 30 30 30 29 28 28
8 10 12 14 16 18 20 21 23 25 26 28 29 28 28 29 30 31 31 31 30 30 31 31 31 31 30 30 30 30 30 29 29 29 28 28 27 26
5 7 9 11 14 17 18 19 21 23 24 26 27 27 27 28 28 29 30 30 29 29 29 29 30 30 30 29 29 30 30 30 29 28 27 26 26 25
4 5 6 8 10 13 15 17 19 20 22 23 25 26 27 26 26 27 27 28 28 28 29 28 28 27 28 28 28 28 27 27 27 26 26 26 25 25
6 4 5 6 8 10 13 15 17 19 21 22 23 23 24 25 25 25 26 27 27 26 27 28 27 27 27 27 27 26 26 26 26 25 25 24 24 23
7 5 4 5 7 8 10 12 15 16 18 20 21 22 22 23 24 24 25 26 26 26 26 27 27 27 27 27 26 26 25 25 24 24 24 23 22 22
9 7 6 6 7 8 9 10 12 13 15 17 18 20 22 23 24 24 24 24 25 25 25 25 24 24 25 25 25 24 24 24 23 22 21 21 21 20
10 9 7 7 7 7 8 9 10 12 13 15 16 18 20 21 23 23 23 24 23 23 23 22 23 24 24 23 23 23 23 23 23 22 21 20 19 18
11 10 8 7 7 7 7 8 9 10 11 12 14 16 18 19 19 20 22 23 22 22 23 23 23 22 22 21 21 21 22 21 21 21 20 19 18 18
12 11 9 8 7 6 6 6 8 9 10 11 13 13 15 17 17 18 19 21 20 20 21 21 21 21 21 21 20 20 20 20 20 20 19 18 18 18
13 12 11 9 8 7 7 7 8 9 10 11 11 12 13 14 16 17 18 19 19 19 19 19 19 19 19 20 19 19 19 19 19 19 18 18 18 17
13 13 12 11 9 8 8 8 8 9 10 10 11 12 13 14 15 16 18 18 18 19 19 19 19 19 20 19 19 19 19 19 20 19 19 18 18 17
15 14 13 12 11 10 10 10 10 11 11 12 13 13 14 14 15 16 17 18 19 19 19 19 19 19 19 19 20 20 20 20 20 20 19 19 19 19
17 17 16 15 14 13 13 13 13 13 14 14 14 15 15 15 16 16 17 18 18 19 19 19 19 19 19 19 19 20 20 20 20 20 20 19 19 19
21 20 19 18 18 17 17 16 16 16 16 16 16 17 17 17 18 18 18 19 19 19 19 19 19 20 20 20 21 20 20 21 21 21 20 20 20 20
25 24 23 23 22 22 21 20 20 19 19 19 18 18 18 18 19 19 19 19 20 20 20 20 20 21 21 21 21 21 21 20 20 21 21 21 20 20
29 28 27 27 26 26 25 25 24 23 22 22 22 21 21 20 20 20 20 20 20 20 21 21 21 21 21 21 21 22 21 21 21 21 21 21 20 20
Wind_Direction
243 241 239 236 236 236 236 236 235 235 235 234 233 232 234 235 235 236 237 238 239 241 243 245 247 250 253 255 258 261 263 266 268 272 274 277 278 280
244 242 240 237 235 236 237 236 235 235 237 233 234 233 233 235 236 237 238 239 239 242 245 247 248 251 254 256 260 261 262 264 268 270 273 276 278 279
243 242 240 239 237 236 236 235 236 236 238 237 237 234 234 236 238 240 240 241 241 243 246 248 250 253 255 257 259 260 262 264 267 269 271 274 276 279
245 242 240 240 239 237 235 234 235 236 238 238 238 237 237 237 238 239 241 242 243 245 246 249 251 253 255 257 258 260 262 265 266 268 270 273 275 279
249 244 241 241 239 236 235 234 234 235 235 237 240 240 238 239 240 239 240 242 244 246 247 249 251 253 256 257 258 260 262 264 266 267 269 271 274 277
252 248 244 241 239 237 237 236 235 235 235 238 240 240 240 240 241 241 241 242 245 247 249 250 253 254 254 255 257 260 262 263 264 266 267 269 272 274
259 252 248 242 239 239 239 237 235 236 236 239 241 242 242 242 242 243 244 245 246 246 249 251 254 255 256 256 257 259 260 261 263 264 266 268 271 274
269 258 251 245 241 240 239 238 236 235 237 240 241 244 244 243 243 245 246 246 246 246 249 251 253 254 256 256 257 257 259 261 261 262 264 267 270 273
284 266 261 252 244 240 240 240 238 236 238 239 241 243 243 243 244 245 246 247 247 247 249 251 252 253 253 254 256 258 259 260 259 260 262 265 269 272
318 280 263 254 244 241 240 240 241 239 238 238 240 241 242 243 245 246 246 247 249 250 249 250 251 252 252 253 254 255 255 255 257 260 261 263 267 271
341 313 284 268 255 247 244 242 240 238 236 236 238 240 244 245 245 246 247 247 248 248 248 249 250 252 253 255 255 255 255 255 257 258 260 262 264 266
350 333 306 281 270 260 251 244 242 242 241 237 236 238 241 241 241 246 249 249 249 249 250 250 252 252 253 254 253 252 251 252 254 255 257 258 259 260
351 342 322 298 283 270 259 249 243 242 241 237 236 239 240 241 242 245 247 248 248 248 249 249 249 251 251 250 252 252 249 248 248 250 252 253 254 255
350 344 332 312 298 285 267 255 250 245 242 239 242 241 240 240 240 241 243 244 246 245 245 246 247 247 247 248 250 249 247 246 245 247 251 250 250 251
352 348 339 325 310 296 278 261 253 249 250 247 246 243 240 238 239 240 240 241 243 244 245 246 246 245 244 244 245 244 244 244 247 246 248 247 247 248
349 346 339 330 321 307 288 274 264 258 255 252 250 247 243 240 239 239 239 241 243 246 245 243 241 243 245 243 241 243 244 244 244 243 244 246 249 249
343 341 337 329 322 310 297 283 274 266 260 256 255 252 250 247 245 243 243 242 242 241 242 242 243 244 244 243 242 241 241 243 243 241 244 247 247 247
333 333 329 323 317 309 300 288 278 271 263 259 256 255 256 252 251 247 243 242 241 241 244 245 245 246 246 244 242 243 245 245 246 246 247 246 245 247
317 317 317 315 309 301 294 288 280 274 268 264 262 261 260 258 255 249 245 244 244 245 245 245 246 246 246 245 243 243 245 246 247 246 245 244 245 248
305 304 302 301 299 294 290 285 281 276 272 270 264 260 259 258 256 252 249 247 248 248 248 248 248 247 246 244 245 245 246 247 246 245 245 245 246 248
295 294 292 290 289 287 284 281 278 275 272 269 266 262 259 258 255 252 251 250 249 251 250 250 249 247 246 245 248 249 248 247 247 246 247 246 246 248
288 287 285 283 281 279 278 276 274 271 269 267 265 265 262 259 256 252 252 252 250 249 249 249 250 249 248 247 248 248 248 247 247 247 246 246 247 249
283 282 281 279 278 276 273 272 270 268 266 264 263 262 260 258 255 253 251 251 251 250 250 251 251 250 249 248 246 246 245 246 247 248 247 247 248 250